sat.trackr.live / text

‹ back to catalog

YAOGAN-9 01C

NORAD 36415 · 2010-009C

PAYLOAD ACTIVE UNKNOWN

§ Identity

Operator
Country
PRC
Launch date
2010-03-05
Launch site
JSC
Launch vehicle
Mass (kg)
RCS (m²)
2.66

External: N2YO · Heavens-Above · Gunter

§ Orbital elements

Epoch: 2026-09-19T23:55:41.937024Z

Period
107.01 min
Inclination
63.3624°
Eccentricity
0.0547086
Mean motion
13.45726615 rev/d
Perigee alt
679.6 km
Apogee alt
1,496.5 km
Semi-major
7,466.2 km
B*
4.4124e-5
RAAN
112.9854°
Arg perigee
22.0019°
Mean anomaly
340.3545°
Rev number
81,266

§ Raw data

YAOGAN-9 01C1 36415U 10009C   26262.99701316 -.00000028  00000+0  44124-4 0  99922 36415  63.3624 112.9854 0547086  22.0019 340.3545 13.45726615812666

JSON: /api/v1/satellites/36415 · /tle

For live sub-satellite position, see the globe view (requires WebGL).

§ Visibility from observer

Set your observer location to see the next 7 days of passes ≥ 10°. The values pass through the URL so the page stays shareable.

No JS? Fill the form by hand. The geolocation button needs JavaScript.